Weather History for Thessaloniki, Greece

Change the Weather History Date:

Saturday, February 2, 2013

  Actual Average Record
Temperature  
Mean Temperature 46 °F -  
Max Temperature 58 °F 52 °F 58 °F (2013)
Min Temperature 34 °F 36 °F 26 °F (2011)
Degree Days  
Heating Degree Days 19    
Moisture  
Dew Point 36 °F    
Average Humidity 75    
Maximum Humidity 87    
Minimum Humidity 55    
Precipitation  
Precipitation 0.00 in 0.05 in - ()
Sea Level Pressure  
Sea Level Pressure 29.74 in    
Wind  
Wind Speed 4 mph ()    
Max Wind Speed 12 mph    
Max Gust Speed -    
Visibility 6.2 miles    
Events      
Averages and records for this station are not official NWS values.
T = Trace of Precipitation, MM = Missing Value Source: Averaged Metar Reports

Daily Weather History Graph

Daily Weather History Graph

Search for Another Location

Airport:

Trip Planner

Search our weather history database for the weather conditions in past years. The results will help you decide how hot, cold, wet, or windy it might be!

Date:

Astronomy

Feb. 02, 2013 Rise Set
Actual Time 7:36 AM EET 5:47 PM EET
Civil Twilight 7:07 AM EET 6:16 PM EET
Nautical Twilight 6:35 AM EET 6:48 PM EET
Astronomical Twilight 6:03 AM EET 7:20 PM EET
Moon No Moon Rise 10:33 AM EET (2/2)
Length of Visible Light 11h 08m
Length of Day
10h 10m
Waning Gibbous, 63% of the Moon is Illuminated
Feb 2
Waning Gibbous
Feb 3
Last Quarter
Feb 10
New
Feb 17
First Quarter
Feb 25
Full

Hourly Weather History & Observations

Time (EET) Temp. Windchill Dew Point Humidity Pressure Visibility Wind Dir Wind Speed Gust Speed Precip Events Conditions
12:20 AM 35.6 °F 30.7 °F 30.2 °F 81% 29.86 in - ESE 5.8 mph - N/A   Clear
12:50 AM 35.6 °F 30.7 °F 32.0 °F 87% 29.86 in - ESE 5.8 mph - N/A   Clear
1:20 AM 35.6 °F 31.7 °F 30.2 °F 81% 29.86 in - SE 4.6 mph - N/A   Clear
1:50 AM 35.6 °F 31.7 °F 30.2 °F 81% 29.86 in - East 4.6 mph - N/A   Clear
2:00 AM 36 °F - 29 °F 69% 29.86 in 6 mi East 4.6 mph - -   Clear
2:20 AM 37.4 °F 33.8 °F 30.2 °F 75% 29.83 in - ESE 4.6 mph - N/A   Clear
2:50 AM 35.6 °F 32.8 °F 28.4 °F 75% 29.83 in - Variable 3.5 mph - N/A   Clear
3:20 AM 33.8 °F 29.6 °F 28.4 °F 81% 29.83 in - ESE 4.6 mph - N/A   Clear
3:50 AM 33.8 °F 29.6 °F 28.4 °F 81% 29.80 in - ESE 4.6 mph - N/A   Clear
4:20 AM 33.8 °F - 28.4 °F 81% 29.80 in - Calm Calm - N/A   Clear
4:50 AM 35.6 °F - 30.2 °F 81% 29.80 in - Calm Calm - N/A   Clear
5:20 AM 35.6 °F - 30.2 °F 81% 29.80 in - Calm Calm - N/A   Clear
5:50 AM 33.8 °F 29.6 °F 28.4 °F 81% 29.80 in 6.2 mi SE 4.6 mph - N/A   Scattered Clouds
6:50 AM 35.6 °F - 30.2 °F 81% 29.77 in 6.2 mi Variable 2.3 mph - N/A   Mostly Cloudy
7:20 AM 33.8 °F - 28.4 °F 81% 29.77 in 6.2 mi Variable 2.3 mph - N/A   Mostly Cloudy
7:50 AM 35.6 °F - 30.2 °F 81% 29.77 in 6.2 mi Variable 2.3 mph - N/A   Mostly Cloudy
8:00 AM 35 °F - 30 °F 74% 29.79 in 6 mi 2.3 mph - -   Scattered Clouds
8:20 AM 35.6 °F - 30.2 °F 81% 29.77 in 6.2 mi Variable 2.3 mph - N/A   Mostly Cloudy
8:50 AM 35.6 °F 32.8 °F 32.0 °F 87% 29.77 in 6.2 mi Variable 3.5 mph - N/A   Mostly Cloudy
9:20 AM 37.4 °F - 33.8 °F 87% 29.77 in 6.2 mi Calm Calm - N/A   Mostly Cloudy
9:50 AM 39.2 °F - 33.8 °F 81% 29.77 in 6.2 mi Variable 2.3 mph - N/A   Mostly Cloudy
10:20 AM 41.0 °F - 33.8 °F 76% 29.77 in 6.2 mi Variable 2.3 mph - N/A   Mostly Cloudy
10:50 AM 44.6 °F - 35.6 °F 71% 29.77 in 6.2 mi Variable 2.3 mph - N/A   Mostly Cloudy
11:20 AM 46.4 °F - 35.6 °F 66% 29.77 in 6.2 mi Variable 2.3 mph - N/A   Mostly Cloudy
11:50 AM 46.4 °F 43.5 °F 37.4 °F 71% 29.77 in 6.2 mi WNW 5.8 mph - N/A   Mostly Cloudy
12:20 PM 48.2 °F - 37.4 °F 66% 29.74 in 6.2 mi West 4.6 mph - N/A   Mostly Cloudy
12:50 PM 48.2 °F - 37.4 °F 66% 29.74 in 6.2 mi Variable 3.5 mph - N/A   Mostly Cloudy
1:20 PM 50.0 °F - 39.2 °F 66% 29.71 in 6.2 mi Variable 2.3 mph - N/A   Mostly Cloudy
1:50 PM 50.0 °F - 39.2 °F 66% 29.71 in 6.2 mi WNW 4.6 mph - N/A   Mostly Cloudy
2:00 PM 49 °F - 38 °F 57% 29.73 in 6 mi WNW 4.6 mph - -   Scattered Clouds
2:20 PM 50.0 °F - 39.2 °F 66% 29.71 in 6.2 mi NW 3.5 mph - N/A   Mostly Cloudy
2:50 PM 50.0 °F - 39.2 °F 66% 29.68 in 6.2 mi NW 3.5 mph - N/A   Mostly Cloudy
3:20 PM 51.8 °F - 41.0 °F 67% 29.68 in 6.2 mi NW 3.5 mph - N/A   Mostly Cloudy
4:20 PM 51.8 °F - 42.8 °F 71% 29.65 in 6.2 mi NNW 4.6 mph - N/A   Mostly Cloudy
4:50 PM 53.6 °F - 42.8 °F 67% 29.65 in 6.2 mi Calm Calm - N/A   Mostly Cloudy
5:20 PM 57.2 °F - 42.8 °F 59% 29.65 in 6.2 mi SE 5.8 mph - N/A   Mostly Cloudy
5:50 PM 59.0 °F - 42.8 °F 55% 29.65 in 6.2 mi SE 8.1 mph - N/A   Scattered Clouds
6:50 PM 57.2 °F - 42.8 °F 59% 29.65 in 6.2 mi ESE 11.5 mph - N/A   Scattered Clouds
7:20 PM 55.4 °F - 44.6 °F 67% 29.65 in 6.2 mi ESE 6.9 mph - N/A   Scattered Clouds
7:50 PM 51.8 °F - 44.6 °F 76% 29.65 in 6.2 mi WSW 8.1 mph - N/A   Scattered Clouds
8:00 PM 52 °F - 45 °F 68% 29.68 in 6 mi WSW 8.1 mph - -   Scattered Clouds
8:20 PM 50.0 °F - 44.6 °F 82% 29.68 in 6.2 mi West 6.9 mph - N/A   Scattered Clouds
8:50 PM 50.0 °F - 42.8 °F 76% 29.68 in 6.2 mi West 8.1 mph - N/A   Scattered Clouds
9:20 PM 48.2 °F - 41.0 °F 76% 29.65 in 6.2 mi Variable 2.3 mph - N/A   Scattered Clouds
9:50 PM 44.6 °F 43.1 °F 39.2 °F 81% 29.65 in 6.2 mi Variable 3.5 mph - N/A   Scattered Clouds
10:20 PM 42.8 °F - 39.2 °F 87% 29.65 in 6.2 mi Variable 2.3 mph - N/A   Scattered Clouds
10:50 PM 42.8 °F 41.1 °F 39.2 °F 87% 29.65 in 6.2 mi Variable 3.5 mph - N/A   Scattered Clouds
11:20 PM 42.8 °F 41.1 °F 37.4 °F 81% 29.65 in 6.2 mi Variable 3.5 mph - N/A   Scattered Clouds
11:50 PM 44.6 °F 43.1 °F 41.0 °F 87% 29.65 in 6.2 mi Variable 3.5 mph - N/A   Scattered Clouds